Total_Precipitation_Accumulation
0.00 0.00 0.00 0.00 0.00 0.00 0.01 0.02 0.02 0.09 0.18 0.12 0.10 0.07 0.07 0.07 0.06 0.04 0.07 0.06 0.01 0.00 0.00 0.00 0.00 0.00 0.00 0.00 0.00 0.00 0.00 0.00
0.00 0.00 0.00 0.00 0.00 0.00 0.01 0.01 0.03 0.05 0.08 0.09 0.07 0.07 0.04 0.03 0.07 0.15 0.09 0.05 0.03 0.02 0.02 0.01 0.00 0.00 0.00 0.00 0.00 0.00 0.00 0.00
0.00 0.00 0.00 0.00 0.00 0.00 0.01 0.03 0.06 0.03 0.03 0.07 0.12 0.22 0.20 0.12 0.16 0.23 0.18 0.07 0.02 0.01 0.01 0.01 0.00 0.00 0.00 0.00 0.00 0.00 0.00 0.00
0.00 0.00 0.00 0.00 0.00 0.00 0.01 0.02 0.08 0.10 0.16 0.16 0.17 0.25 0.12 0.05 0.01 0.04 0.19 0.23 0.13 0.04 0.02 0.00 0.00 0.00 0.00 0.00 0.00 0.00 0.00 0.00
0.00 0.00 0.00 0.00 0.00 0.01 0.03 0.05 0.13 0.34 0.37 0.26 0.17 0.16 0.09 0.10 0.11 0.13 0.24 0.30 0.24 0.13 0.05 0.03 0.01 0.00 0.00 0.00 0.00 0.00 0.00 0.00
0.00 0.00 0.00 0.02 0.07 0.13 0.21 0.29 0.31 0.38 0.41 0.36 0.37 0.27 0.18 0.16 0.13 0.14 0.17 0.13 0.11 0.09 0.05 0.04 0.03 0.02 0.01 0.00 0.00 0.00 0.00 0.00
0.00 0.00 0.00 0.10 0.23 0.27 0.37 0.38 0.35 0.40 0.39 0.41 0.44 0.44 0.46 0.30 0.19 0.17 0.18 0.15 0.11 0.09 0.08 0.08 0.06 0.03 0.01 0.00 0.00 0.00 0.00 0.00
0.00 0.00 0.01 0.10 0.23 0.35 0.50 0.53 0.44 0.42 0.46 0.49 0.51 0.52 0.55 0.55 0.47 0.34 0.26 0.22 0.20 0.19 0.22 0.20 0.16 0.06 0.02 0.00 0.00 0.00 0.00 0.00
0.00 0.00 0.01 0.01 0.05 0.24 0.50 0.70 0.76 0.57 0.56 0.68 0.76 0.86 1.08 1.10 1.00 0.97 0.90 0.83 0.80 0.73 0.69 0.54 0.40 0.33 0.20 0.10 0.03 0.01 0.00 0.00
0.03 0.03 0.04 0.07 0.09 0.11 0.26 0.56 0.77 1.00 0.99 0.96 0.96 0.94 0.99 1.01 1.06 1.30 1.51 1.58 1.42 1.25 1.19 1.08 0.96 0.73 0.59 0.47 0.28 0.16 0.05 0.02
0.01 0.01 0.02 0.01 0.01 0.03 0.07 0.20 0.55 1.03 1.35 1.23 1.05 1.09 1.16 0.98 0.94 0.95 0.88 0.95 1.12 1.07 1.01 1.05 1.04 0.94 0.73 0.54 0.34 0.23 0.17 0.15
0.01 0.02 0.07 0.10 0.08 0.08 0.07 0.07 0.07 0.11 0.24 0.43 0.78 0.89 0.76 0.66 0.52 0.62 0.76 0.68 0.58 0.61 0.59 0.55 0.60 0.62 0.58 0.51 0.40 0.32 0.24 0.20
0.00 0.00 0.00 0.02 0.04 0.07 0.09 0.11 0.14 0.13 0.11 0.15 0.17 0.19 0.28 0.35 0.33 0.33 0.46 0.59 0.61 0.64 0.57 0.47 0.43 0.47 0.48 0.47 0.43 0.34 0.30 0.27
0.00 0.00 0.00 0.00 0.00 0.00 0.01 0.01 0.01 0.01 0.02 0.03 0.06 0.07 0.08 0.10 0.13 0.14 0.17 0.27 0.42 0.56 0.61 0.55 0.47 0.45 0.45 0.48 0.48 0.42 0.34 0.30
0.00 0.00 0.00 0.00 0.00 0.00 0.00 0.00 0.00 0.00 0.00 0.00 0.00 0.00 0.01 0.01 0.01 0.02 0.06 0.12 0.19 0.31 0.44 0.50 0.39 0.36 0.34 0.36 0.36 0.31 0.26 0.24
0.00 0.00 0.00 0.00 0.00 0.00 0.00 0.00 0.00 0.00 0.00 0.00 0.01 0.01 0.01 0.01 0.02 0.01 0.01 0.02 0.05 0.09 0.16 0.26 0.30 0.26 0.25 0.27 0.24 0.23 0.19 0.20
0.00 0.00 0.00 0.00 0.00 0.00 0.00 0.00 0.00 0.00 0.00 0.00 0.02 0.02 0.01 0.01 0.00 0.00 0.01 0.00 0.01 0.01 0.02 0.04 0.10 0.14 0.19 0.15 0.12 0.11 0.10 0.11
0.00 0.00 0.00 0.00 0.00 0.00 0.00 0.00 0.00 0.00 0.00 0.00 0.00 0.00 0.00 0.00 0.00 0.00 0.00 0.00 0.00 0.00 0.01 0.01 0.01 0.01 0.06 0.08 0.11 0.09 0.10 0.11
0.00 0.00 0.00 0.00 0.00 0.00 0.00 0.00 0.00 0.00 0.00 0.00 0.00 0.00 0.00 0.00 0.00 0.00 0.00 0.00 0.00 0.01 0.03 0.02 0.03 0.04 0.07 0.11 0.11 0.11 0.12 0.11